Regional Weather Roundup
Issued by NWS Cleveland, OH

Home | Current Version | Previous Version | Graphics & Text | Print | Product List | Glossary On
Versions: 1 2 3 4 5 6 7 8 9 10 11 12 13 14 15 16 17 18 19 20 21 22 23 24 25 26 27 28 29 30 31 32 33 34 35 36 37 38 39 40 41 42 43 44 45 46 47 48 49 50
000
ASUS41 KCLE 180702
RWRCLE
OHIO REGIONAL WEATHER ROUNDUP
NATIONAL WEATHER SERVICE CLEVELAND, OH
300 AM EDT THU SEP 18 2014

NOTE: "FAIR" INDICATES FEW OR NO CLOUDS BELOW 12,000 FEET WITH NO
SIGNIFICANT WEATHER AND/OR OBSTRUCTIONS TO VISIBILITY.

OHZ001>008-015>018-024>027-034-035-043-044-180800-
   NORTHWEST OHIO

CITY           SKY/WX    TMP DP  RH WIND       PRES   REMARKS
DEFIANCE       CLEAR     48  44  86 NE3       30.04S
FINDLAY        MOCLDY    48  46  93 SW3       30.02S
TOLEDO EXPRESS CLEAR     50  45  83 CALM      30.03S
TOLEDO EXEC    PTCLDY    51  45  79 CALM      30.04R
LIMA           PTCLDY    47  45  93 CALM      30.04R
$$

OHZ009>014-019>023-028>033-038-089-180800-
   NORTHEAST OHIO

CITY           SKY/WX    TMP DP  RH WIND       PRES   REMARKS
CLE-HOPKINS    MOCLDY    48  46  93 SW3       30.03S
CLE-LAKEFRONT  CLEAR     54  49  83 S7        30.00S
CUY CO. ARPT   NOT AVBL
LORAIN-ELYRIA  CLOUDY    52  48  86 W3        30.03S FOG
ASHTABULA      PTCLDY    44  43  96 CALM      30.02S FOG
AKRON-CANTON   MOCLDY    53  48  83 CALM      30.02S
WOOSTER        CLEAR     45  42  89 CALM      30.03R FOG
MANSFIELD      CLEAR     50  48  93 CALM      30.03R
YOUNGSTOWN     PTCLDY    46  45  96 CALM      30.01S
$$

OHZ042-051>053-060>062-070>072-077>081-180800-
  SOUTHWEST OHIO

CITY           SKY/WX    TMP DP  RH WIND       PRES   REMARKS
CINC-COVINGTON CLEAR     54  50  86 CALM      30.03R
CINC-LUNKEN    CLEAR     49  48  97 CALM      30.04S FOG
HAMILTON       CLEAR     47  46  97 CALM      30.04S FOG
DAYTON         CLEAR     51  48  89 NW3       30.04S
WRIGHT-PAT AFB CLEAR     49  48  96 CALM      30.03S
DAYTON GENERAL CLEAR     50  48  93 CALM      30.03R
WILMINGTON     CLEAR     47  44  90 CALM      30.03R
$$

OHZ036-037-039>041-045>050-054>059-063>069-073>076-082>088-180800-
  CENTRAL AND SOUTHEAST OHIO

CITY           SKY/WX    TMP DP  RH WIND       PRES   REMARKS
COLUMBUS       PTCLDY    53  47  79 CALM      30.01S
OSU AIRPORT    CLEAR     49  47  93 NW5       30.02R
BOLTON FIELD   CLEAR     49  47  93 CALM      30.02S
RICKENBACK AFB MOCLDY    49  47  93 CALM      30.01S
NEWARK         CLOUDY    49  47  93 CALM      30.02R
MARION         CLOUDY    49  46  90 CALM      30.03R
LANCASTER      CLOUDY    51  48  89 CALM      30.02R
ZANESVILLE     CLEAR     50  47  89 CALM      30.01S
NEW PHILLY     MOCLDY    50  49  96 CALM      30.02S FOG
$$



USA.gov is the U.S. government's official web portal to all federal, state and local government web resources and services.